Weather History for Manhattan, KS

Change the Weather History Date:

Friday, February 1, 2013

  Actual Average Record
Temperature  
Mean Temperature 15 °F 30 °F  
Max Temperature 30 °F 42 °F 63 °F (2003)
Min Temperature 0 °F 18 °F 0 °F (2002)
Degree Days  
Heating Degree Days 50 35  
Month to date heating degree days 50 35  
Since 1 July heating degree days 2980 3301  
Cooling Degree Days 0 0  
Month to date cooling degree days 0 0  
Year to date cooling degree days 0 0  
Moisture  
Dew Point 8 °F    
Average Humidity 75    
Maximum Humidity 95    
Minimum Humidity 55    
Precipitation  
Precipitation T in 0.03 in 0.33 in (2004)
Month to date precipitation T 0.03  
Year to date precipitation 0.69 0.68  
Sea Level Pressure  
Sea Level Pressure 30.34 in    
Wind  
Wind Speed 5 mph (SW)    
Max Wind Speed 22 mph    
Max Gust Speed 28 mph    
Visibility 10 miles    
Events      
T = Trace of Precipitation, MM = Missing Value Source: NWS Daily Summary

Daily Weather History Graph

Daily Weather History Graph

Search for Another Location

Airport:

Trip Planner

Search our weather history database for the weather conditions in past years. The results will help you decide how hot, cold, wet, or windy it might be!

Date:

Astronomy

Feb. 01, 2013 Rise Set
Actual Time 7:33 AM CST 5:48 PM CST
Civil Twilight 7:04 AM CST 6:16 PM CST
Nautical Twilight 6:32 AM CST 6:48 PM CST
Astronomical Twilight 6:01 AM CST 7:19 PM CST
Moon 11:53 PM CST (2/1) 10:10 AM CST (2/1)
Length of Visible Light 11h 11m
Length of Day
10h 14m
Waning Gibbous, 70% of the Moon is Illuminated
Feb 1
Waning Gibbous
Feb 3
Last Quarter
Feb 10
New
Feb 17
First Quarter
Feb 25
Full

Hourly Weather History & Observations

Time (CST) Temp. Windchill Dew Point Humidity Pressure Visibility Wind Dir Wind Speed Gust Speed Precip Events Conditions
12:52 AM 1.9 °F - -0.9 °F 88% 30.51 in 10.0 mi Calm Calm - N/A   Clear
1:52 AM 1.0 °F - -2.0 °F 87% 30.48 in 10.0 mi Calm Calm - N/A   Clear
2:52 AM 3.0 °F - -0.9 °F 84% 30.48 in 10.0 mi Calm Calm - N/A   Clear
3:52 AM 1.9 °F - -2.9 °F 80% 30.47 in 10.0 mi Calm Calm - N/A   Clear
4:52 AM 1.0 °F -6.7 °F -2.9 °F 83% 30.48 in 10.0 mi WSW 3.5 mph - N/A   Clear
5:52 AM 1.0 °F - -4.0 °F 79% 30.48 in 10.0 mi Calm Calm - N/A   Clear
6:52 AM 1.9 °F - -2.0 °F 83% 30.45 in 10.0 mi Calm Calm - N/A   Clear
7:52 AM 1.9 °F - -2.0 °F 83% 30.47 in 10.0 mi Calm Calm - N/A   Clear
8:52 AM 7.0 °F - 1.9 °F 80% 30.46 in 10.0 mi Calm Calm - N/A   Scattered Clouds
9:52 AM 12.0 °F - 7.0 °F 80% 30.43 in 10.0 mi Calm Calm - N/A   Mostly Cloudy
10:52 AM 21.9 °F 9.2 °F 10.9 °F 63% 30.40 in 10.0 mi SSW 13.8 mph - 0.00 in   Partly Cloudy
11:52 AM 24.1 °F 10.1 °F 12.9 °F 62% 30.38 in 10.0 mi SW 18.4 mph - N/A   Partly Cloudy
12:52 PM 26.1 °F 13.1 °F 12.9 °F 58% 30.34 in 10.0 mi SW 17.3 mph - N/A   Clear
1:52 PM 27.0 °F 14.7 °F 15.1 °F 61% 30.30 in 10.0 mi SSW 16.1 mph - N/A   Mostly Cloudy
2:52 PM 28.9 °F 19.2 °F 15.1 °F 56% 30.27 in 10.0 mi SW 11.5 mph - N/A   Mostly Cloudy
3:52 PM 28.9 °F 20.4 °F 15.1 °F 56% 30.25 in 10.0 mi South 9.2 mph - N/A   Clear
4:52 PM 28.0 °F 22.8 °F 15.1 °F 58% 30.23 in 10.0 mi South 4.6 mph - N/A   Clear
5:52 PM 27.0 °F - 15.1 °F 61% 30.19 in 10.0 mi Calm Calm - N/A   Clear
6:52 PM 24.8 °F - 14.0 °F 64% 30.14 in 10.0 mi Calm Calm - N/A   Clear
7:52 PM 24.8 °F 17.9 °F 15.8 °F 69% 30.14 in 10.0 mi SW 5.8 mph - N/A   Clear
8:52 PM 26.1 °F 19.4 °F 15.1 °F 63% 30.19 in 10.0 mi SW 5.8 mph - N/A   Clear
9:52 PM 27.0 °F 19.5 °F 16.0 °F 63% 30.18 in 10.0 mi SW 6.9 mph - N/A   Clear
10:52 PM 28.0 °F 18.6 °F 17.1 °F 63% 30.16 in 10.0 mi SW 10.4 mph - N/A   Clear
11:52 PM 28.9 °F 21.9 °F 16.0 °F 58% 30.16 in 10.0 mi SW 6.9 mph - N/A   Mostly Cloudy